Location: Plainartige
(45.6866°N, 1.7993°E)
Time: 16:56:57
(UTC+00:00)

Tiros 1 - Pass Details

Date: 04 June 2022
Orbit: 629 x 663 km, 48.4° (Epoch: 05 July)

Event Time Altitude Azimuth Distance (km) Brightness Sun altitude
Rises 20:36:17 0° 220° (SW) 2,906 10.4 -8.7°
Reaches altitude 10° 20:38:43 10° 211° (SSW) 2,000 9.5 -9.0°
Maximum altitude 20:42:55 36° 145° (SE) 996 7.6 -9.5°
Drops below altitude 10° 20:47:09 10° 79° (E) 2,007 9.4 -10.0°
Sets 20:49:36 0° 71° (ENE) 2,919 10.3 -10.3°
